This demonstration page uses our WeatherBlox Daily Observations layout. Learn more.

41.55636, -103.73856

Hourly Observations for March 4, 2019

Temp ( °F °C ) Dew Point ( °F °C ) Humidity (%) Winds ( mph kmh ) Pressure ( in mb ) Visibility ( mi km ) Precip ( " mm )
12:53 am 00:53 Clear -9 -22.8 -15 -26.1 75 75 WNW 8 13 30.56 1035 10 16.09344 0 0
1:53 am 01:53 Clear -10 -23.3 -15 -26.1 78 78 W 10 17 30.56 1035 10 16.09344 0 0
2:53 am 02:53 Clear -11 -23.9 -17 -27.2 74 74 NW 5 7 30.56 1035 10 16.09344 0 0
3:53 am 03:53 Clear -11 -23.9 -16 -26.7 78 78 WNW 7 11 30.56 1035 10 16.09344 0 0
4:53 am 04:53 Clear -13 -25 -17 -27.2 82 82 NW 7 11 30.56 1035 10 16.09344 0 0
5:53 am 05:53 Clear -14 -25.6 -18 -27.8 82 82 WNW 7 11 30.56 1035 10 16.09344 0 0
6:53 am 06:53 Sunny -12 -24.4 -17 -27.2 78 78 WNW 9 15 30.56 1035 10 16.09344 0 0
7:53 am 07:53 Sunny -7 -21.7 -12 -24.4 79 79 W 7 11 30.56 1035 10 16.09344 0 0
8:53 am 08:53 Sunny -2 -18.9 -10 -23.3 68 68 WNW 12 19 30.56 1035 10 16.09344 0 0
9:53 am 09:53 Sunny 2 -16.7 -7 -21.7 65 65 WNW 10 17 30.53 1034 10 16.09344 0 0
10:53 am 10:53 Sunny 7 -13.9 -2 -18.9 66 66 WNW 12 19 30.5 1033 10 16.09344 0 0
11:53 am 11:53 Sunny 11 -11.7 1 -17.2 64 64 W 10 17 30.48 1032 10 16.09344 0 0
12:53 pm 12:53 Sunny 14 -10 3 -16.1 61 61 W 10 17 30.45 1031 10 16.09344 0 0
1:53 pm 13:53 Sunny 16 -8.9 4 -15.6 59 59 WNW 12 19 30.42 1030 10 16.09344 0 0
2:53 pm 14:53 Sunny 17 -8.3 5 -15 59 59 W 14 22 30.39 1029 10 16.09344 0 0
3:53 pm 15:53 Sunny 18 -7.8 6 -14.4 59 59 W 12 19 30.39 1029 10 16.09344 0 0
4:53 pm 16:53 Sunny 17 -8.3 5 -15 59 59 W 13 20 30.39 1029 10 16.09344 0 0
5:53 pm 17:53 Clear 13 -10.6 3 -16.1 64 64 NW 6 9 30.39 1029 10 16.09344 0 0
6:53 pm 18:53 Clear 9 -12.8 2 -16.7 73 73 NW 6 9 30.42 1030 10 16.09344 0 0
7:53 pm 19:53 Clear 8 -13.3 2 -16.7 76 76 WNW 8 13 30.45 1031 10 16.09344 0 0
8:53 pm 20:53 Clear 2 -16.7 -1 -18.3 88 88 N 5 7 30.45 1031 10 16.09344 0 0
9:53 pm 21:53 Clear 2 -16.7 -2 -18.9 83 83 WNW 8 13 30.48 1032 10 16.09344 0 0
10:53 pm 22:53 Clear 5 -15 -1 -18.3 76 76 WNW 8 13 30.45 1031 10 16.09344 0 0
11:53 pm 23:53 Clear 6 -14.4 -1 -18.3 73 73 WNW 9 15 30.45 1031 10 16.09344 0 0

Powered by AerisWeather